Lambertville, MI

8:21 PM EST on February 05, 2016 (GMT -0500)
Toledo Suburban Airport

Weather History for KDUH - March, 2014

Change the Weather History Date:

Saturday, March 29, 2014

  Actual Average (KTOL) Record (KTOL)
Temperature  
Mean Temperature 36 °F 43 °F  
Max Temperature 39 °F 53 °F 80 °F (1963)
Min Temperature 33 °F 33 °F 8 °F (1887)
Degree Days  
Heating Degree Days 29 22  
Month to date heating degree days 806  
Since 1 July heating degree days 5382  
Cooling Degree Days 0 0  
Month to date cooling degree days 0  
Year to date cooling degree days 0  
Moisture  
Dew Point 30 °F    
Average Humidity 80    
Maximum Humidity 87    
Minimum Humidity 70    
Precipitation  
Precipitation 0.00 in 0.09 in 0.77 in (1979)
Month to date precipitation 2.29  
Year to date precipitation 6.41  
Snow  
Snow 0.00 in 0.10 in - ()
Month to date snowfall 5.5  
Since 1 July snowfall 36.0  
Snow Depth -    
Sea Level Pressure  
Sea Level Pressure 30.12 in    
Wind  
Wind Speed 7 mph (NNE)    
Max Wind Speed 16 mph    
Max Gust Speed 23 mph    
Visibility 9 miles    
Events Rain , Snow    
T = Trace of Precipitation, MM = Missing Value Source: NWS Daily Summary

Daily Weather History Graph

Daily Weather History Graph

Search for Another Location

Airport or City:

Trip Planner

Search our weather history database for the weather conditions in past years. The results will help you decide how hot, cold, wet, or windy it might be!

Date:

Astronomy

Mar. 29, 2014 Rise Set
Actual Time 7:22 AM EDT 7:56 PM EDT
Civil Twilight 6:54 AM EDT 8:24 PM EDT
Nautical Twilight 6:21 AM EDT 8:57 PM EDT
Astronomical Twilight 5:47 AM EDT 9:31 PM EDT
Moon 6:31 AM EDT (3/29) 7:00 PM EDT (3/29)
Length of Visible Light 13h 30m
Length of Day
12h 34m
Waning Crescent, 2% of the Moon is Illuminated
Mar 29
Waning Crescent
Mar 30
New
Apr 7
First Quarter
Apr 15
Full
Apr 22
Last Quarter

Hourly Weather History & Observations

Time (EDT) Temp. Windchill Dew Point Humidity Pressure Visibility Wind Dir Wind Speed Gust Speed Precip Events Conditions
12:15 AM 39.2 °F - 32.0 °F 75% 30.17 in 10.0 mi Calm Calm - N/A   Overcast
12:35 AM 39.2 °F - 32.0 °F 75% 30.17 in 10.0 mi Calm Calm - N/A   Overcast
12:55 AM 39.2 °F - 32.0 °F 75% 30.17 in 10.0 mi Calm Calm - N/A   Overcast
1:15 AM 39.2 °F - 32.0 °F 75% 30.17 in 10.0 mi Calm Calm - N/A   Overcast
1:35 AM 39.2 °F - 32.0 °F 75% 30.16 in 10.0 mi Calm Calm - N/A   Overcast
1:55 AM 39.2 °F - 32.0 °F 75% 30.17 in 10.0 mi Calm Calm - N/A   Overcast
2:15 AM 39.2 °F 35.0 °F 32.0 °F 75% 30.17 in 10.0 mi East 5.8 mph - N/A   Overcast
2:35 AM 39.2 °F 35.9 °F 32.0 °F 75% 30.17 in 10.0 mi ENE 4.6 mph - N/A   Overcast
2:55 AM 39.2 °F 37.0 °F 32.0 °F 75% 30.16 in 10.0 mi East 3.5 mph - N/A   Overcast
3:15 AM 37.4 °F 34.9 °F 32.0 °F 81% 30.15 in 10.0 mi East 3.5 mph - N/A   Overcast
3:35 AM 37.4 °F 32.1 °F 32.0 °F 81% 30.14 in 10.0 mi ENE 6.9 mph - N/A   Overcast
3:55 AM 39.2 °F 35.0 °F 32.0 °F 75% 30.15 in 10.0 mi ENE 5.8 mph - N/A   Overcast
4:15 AM 37.4 °F 29.8 °F 32.0 °F 81% 30.15 in 10.0 mi East 11.5 mph 17.3 mph N/A   Overcast
4:35 AM 37.4 °F 30.8 °F 32.0 °F 81% 30.14 in 10.0 mi East 9.2 mph 17.3 mph N/A   Overcast
4:55 AM 37.4 °F 30.8 °F 32.0 °F 81% 30.14 in 10.0 mi ENE 9.2 mph - N/A   Overcast
5:15 AM 35.6 °F 29.2 °F 32.0 °F 87% 30.14 in 10.0 mi ENE 8.1 mph - N/A   Overcast
5:35 AM 35.6 °F 28.0 °F 32.0 °F 87% 30.14 in 10.0 mi ENE 10.4 mph - N/A   Overcast
5:55 AM 37.4 °F 31.4 °F 32.0 °F 81% 30.13 in 10.0 mi ENE 8.1 mph - N/A   Overcast
6:15 AM 37.4 °F 30.3 °F 32.0 °F 81% 30.12 in 10.0 mi ENE 10.4 mph - N/A   Overcast
6:35 AM 35.6 °F 29.2 °F 32.0 °F 87% 30.13 in 10.0 mi ENE 8.1 mph - N/A   Overcast
6:55 AM 35.6 °F 28.6 °F 32.0 °F 87% 30.13 in 10.0 mi ENE 9.2 mph - N/A   Overcast
7:15 AM 35.6 °F 30.7 °F 32.0 °F 87% 30.14 in 10.0 mi ENE 5.8 mph - N/A   Overcast
7:35 AM 35.6 °F 29.9 °F 32.0 °F 87% 30.14 in 10.0 mi NE 6.9 mph - N/A   Overcast
7:55 AM 35.6 °F 27.5 °F 32.0 °F 87% 30.14 in 10.0 mi ENE 11.5 mph 16.1 mph N/A   Overcast
8:15 AM 35.6 °F 28.6 °F 32.0 °F 87% 30.14 in 10.0 mi NE 9.2 mph - N/A   Overcast
8:35 AM 35.6 °F 29.2 °F 32.0 °F 87% 30.14 in 10.0 mi NE 8.1 mph - N/A   Overcast
8:55 AM 35.6 °F 29.9 °F 32.0 °F 87% 30.15 in 10.0 mi NE 6.9 mph - N/A   Overcast
9:15 AM 35.6 °F 29.9 °F 32.0 °F 87% 30.14 in 10.0 mi NE 6.9 mph - N/A   Overcast
9:35 AM 35.6 °F 27.5 °F 32.0 °F 87% 30.14 in 10.0 mi NNE 11.5 mph - N/A   Overcast
9:55 AM 35.6 °F 27.1 °F 32.0 °F 87% 30.13 in 10.0 mi NNE 12.7 mph 16.1 mph N/A   Overcast
10:15 AM 35.6 °F 28.6 °F 32.0 °F 87% 30.15 in 10.0 mi NNE 9.2 mph - N/A   Overcast
10:35 AM 35.6 °F 27.5 °F 32.0 °F 87% 30.15 in 10.0 mi NNE 11.5 mph - N/A   Overcast
10:55 AM 35.6 °F 27.5 °F 30.2 °F 81% 30.15 in 10.0 mi NNE 11.5 mph 16.1 mph N/A   Overcast
11:15 AM 37.4 °F 30.3 °F 30.2 °F 75% 30.15 in 10.0 mi NE 10.4 mph 16.1 mph N/A   Overcast
11:35 AM 37.4 °F 29.8 °F 30.2 °F 75% 30.15 in 10.0 mi North 11.5 mph 20.7 mph N/A   Overcast
11:55 AM 37.4 °F 29.8 °F 30.2 °F 75% 30.14 in 10.0 mi NNE 11.5 mph 17.3 mph N/A   Overcast
12:15 PM 37.4 °F 30.8 °F 30.2 °F 75% 30.13 in 10.0 mi NNE 9.2 mph 16.1 mph N/A   Overcast
12:35 PM 37.4 °F 30.3 °F 30.2 °F 75% 30.12 in 10.0 mi NNE 10.4 mph 17.3 mph N/A   Overcast
12:55 PM 35.6 °F 26.6 °F 28.4 °F 75% 30.12 in 10.0 mi NNE 13.8 mph - N/A   Overcast
1:15 PM 35.6 °F 28.0 °F 30.2 °F 81% 30.11 in 10.0 mi North 10.4 mph - N/A   Overcast
1:35 PM 35.6 °F 27.5 °F 30.2 °F 81% 30.10 in 10.0 mi NNE 11.5 mph - N/A   Overcast
1:55 PM 35.6 °F 27.5 °F 30.2 °F 81% 30.09 in 4.0 mi NNE 11.5 mph 18.4 mph N/A Snow Light Snow
2:15 PM 35.6 °F 29.9 °F 32.0 °F 87% 30.08 in 2.5 mi NE 6.9 mph - N/A Snow Light Snow
2:35 PM 35.6 °F 28.0 °F 32.0 °F 87% 30.07 in 3.0 mi NNE 10.4 mph 16.1 mph N/A Snow Light Snow
2:55 PM 35.6 °F 29.2 °F 32.0 °F 87% 30.06 in 3.0 mi NNE 8.1 mph - N/A Snow Light Snow
3:15 PM 35.6 °F 28.6 °F 32.0 °F 87% 30.05 in 4.0 mi NNE 9.2 mph - N/A Snow Light Snow
3:35 PM 35.6 °F 27.5 °F 32.0 °F 87% 30.04 in 4.0 mi NNE 11.5 mph 18.4 mph N/A Rain Light Rain
3:55 PM 35.6 °F 28.0 °F 32.0 °F 87% 30.04 in 5.0 mi North 10.4 mph 16.1 mph N/A   Light Drizzle
4:15 PM 35.6 °F 28.0 °F 32.0 °F 87% 30.04 in 5.0 mi North 10.4 mph - N/A Rain Light Rain
4:35 PM 35.6 °F 27.5 °F 32.0 °F 87% 30.04 in 7.0 mi NNE 11.5 mph 17.3 mph N/A   Overcast
4:55 PM 35.6 °F 28.0 °F 32.0 °F 87% 30.03 in 10.0 mi NNE 10.4 mph 19.6 mph N/A   Overcast
5:15 PM 35.6 °F 27.5 °F 30.2 °F 81% 30.04 in 10.0 mi North 11.5 mph 17.3 mph N/A   Overcast
5:35 PM 37.4 °F 29.8 °F 30.2 °F 75% 30.04 in 10.0 mi NNE 11.5 mph 19.6 mph N/A   Overcast
5:55 PM 37.4 °F 29.3 °F 30.2 °F 75% 30.05 in 10.0 mi NNE 12.7 mph 23.0 mph N/A   Overcast
6:15 PM 35.6 °F 26.6 °F 30.2 °F 81% 30.06 in 10.0 mi North 13.8 mph 18.4 mph N/A   Overcast
6:35 PM 35.6 °F 27.5 °F 28.4 °F 75% 30.07 in 10.0 mi North 11.5 mph 16.1 mph N/A   Overcast
6:55 PM 35.6 °F 27.1 °F 28.4 °F 75% 30.08 in 10.0 mi North 12.7 mph 17.3 mph N/A   Overcast
7:15 PM 35.6 °F 27.5 °F 28.4 °F 75% 30.09 in 10.0 mi North 11.5 mph 17.3 mph N/A   Overcast
7:35 PM 35.6 °F 27.5 °F 28.4 °F 75% 30.10 in 10.0 mi North 11.5 mph 16.1 mph N/A   Mostly Cloudy
7:55 PM 35.6 °F 28.6 °F 26.6 °F 70% 30.10 in 10.0 mi NNE 9.2 mph 17.3 mph N/A   Scattered Clouds
8:15 PM 35.6 °F 26.2 °F 26.6 °F 70% 30.10 in 10.0 mi North 15.0 mph 21.9 mph N/A   Scattered Clouds
8:35 PM 35.6 °F 29.9 °F 26.6 °F 70% 30.11 in 10.0 mi North 6.9 mph 17.3 mph N/A   Mostly Cloudy
8:55 PM 35.6 °F 29.2 °F 26.6 °F 70% 30.12 in 10.0 mi North 8.1 mph - N/A   Overcast
9:15 PM 35.6 °F 28.6 °F 26.6 °F 70% 30.13 in 10.0 mi North 9.2 mph - N/A   Overcast
9:35 PM 33.8 °F 27.0 °F 26.6 °F 75% 30.13 in 10.0 mi North 8.1 mph 16.1 mph N/A   Overcast
9:55 PM 33.8 °F 25.8 °F 26.6 °F 75% 30.13 in 10.0 mi North 10.4 mph 17.3 mph N/A   Overcast
10:15 PM 33.8 °F 25.3 °F 26.6 °F 75% 30.13 in 10.0 mi North 11.5 mph 19.6 mph N/A   Overcast
10:35 PM 33.8 °F 23.5 °F 26.6 °F 75% 30.13 in 10.0 mi North 16.1 mph 20.7 mph N/A   Overcast
10:55 PM 33.8 °F 26.4 °F 26.6 °F 75% 30.13 in 10.0 mi North 9.2 mph 18.4 mph N/A   Overcast
11:15 PM 33.8 °F 26.4 °F 26.6 °F 75% 30.14 in 10.0 mi North 9.2 mph 19.6 mph N/A   Overcast
11:35 PM 33.8 °F 26.4 °F 26.6 °F 75% 30.14 in 10.0 mi NNW 9.2 mph 16.1 mph N/A   Overcast
11:55 PM 33.8 °F 26.4 °F 26.6 °F 75% 30.13 in 10.0 mi NNW 9.2 mph - N/A   Overcast